Home > Weather > Saanich > Past weeks

Flag for Canada Weather for the Past 2 Weeks in Saanich, British Columbia, Canada

Now
73 °F

Sunny.


Feels Like: 77 °F
Forecast: 50 / 70 °F
Wind: 5 mph from Northeast

Location: Victoria Int. Airportb. C.

Current Time: May 2, 2016 at 12:37:54 PM

Latest Report: May 2, 2016 at 12:00 PM


Visibility: 30 mi

Pressure: 29.97 "Hg

Humidity: 41%

Dew Point: 48 °F

Location of SaanichLocation

Historic Weather in Saanich — Graph

°F

Saanich Temperature Yesterday

Maximum temperature yesterday: 73 °F (at 5:00 PM)
Minimum temperature yesterday: 45 °F (at 5:00 AM)
Average temperature yesterday: 58 °F

High & Low Weather Summary for the Past Weeks

 TemperatureHumidityPressure
High75 °F (Apr 18, 4:00 PM)94% (Apr 19, 6:00 AM)30.38 "Hg (Apr 19, 6:00 AM)
Low39 °F (Apr 26, 6:00 AM)25% (May 1, 5:00 PM)29.59 "Hg (Apr 22, 8:00 AM)
Average56 °F69%30.02 "Hg
* Reported Apr 17 11:00 AM — May 2 11:00 AM, Saanich, Weather by CustomWeather, © 2016

Note: Actual official high and low records may vary slightly from our data, if they occured in-between our weather recording intervals... More about our weather records

Advertising

Saanich Weather History for the Previous 24 Hours

Scroll right to see more
 ConditionsComfort  
Time TempWeatherWind HumidityBarometerVisibility
11:00 AM
Mon, May 2
68 °FSunny.2 mph49%29.98 "Hg30 mi
10:00 AM64 °FMild.6 mph52%29.98 "Hg30 mi
9:00 AM63 °FSunny.2 mph52%29.98 "Hg30 mi
8:00 AM57 °FSunny.7 mph59%29.99 "Hg30 mi
7:00 AM54 °FSunny.7 mph67%29.98 "Hg30 mi
6:00 AM50 °FClear.7 mph76%29.97 "Hg30 mi
5:00 AM48 °FClear.6 mph82%29.96 "Hg30 mi
4:00 AM50 °FClear.3 mph76%29.96 "Hg30 mi
3:00 AM50 °FClear.7 mph82%29.96 "Hg30 mi
2:00 AM52 °FClear.7 mph72%29.96 "Hg30 mi
1:00 AM54 °FClear.7 mph67%29.96 "Hg30 mi
12:00 AM54 °FClear.5 mph72%29.96 "Hg30 mi
11:00 PM
Sun, May 1
54 °FClear.2 mph72%29.95 "Hg30 mi
10:00 PM54 °FClear.2 mph77%29.95 "Hg30 mi
9:00 PM59 °FSunny.No wind63%29.95 "Hg30 mi
8:00 PM66 °FSunny.2 mph49%29.94 "Hg30 mi
7:00 PM70 °FSunny.3 mph38%29.96 "Hg30 mi
6:00 PM72 °FSunny.7 mph33%29.98 "Hg30 mi
5:00 PM73 °FSunny.6 mph25%30.01 "Hg30 mi
4:00 PM72 °FSunny.3 mph36%30.04 "Hg30 mi
3:00 PM70 °FSunny.5 mph40%30.07 "Hg30 mi
2:00 PM68 °FPassing clouds.6 mph43%30.10 "Hg30 mi
1:00 PM66 °FPassing clouds.8 mph49%30.12 "Hg30 mi
12:00 PM66 °FPassing clouds.6 mph49%30.15 "Hg30 mi
Weather by CustomWeather, © 2016

See weather overviewHow to use our weather pages